Location: Fishcreek Rd Observing Site
(41.1865°N, 81.4271°W)
Time: 11:29:39
(UTC-04:00)

Iridium 75 - Visible Passes

Search period start: 26 May 2018 00:00
Search period end: 05 June 2018 00:00
Orbit: 776 x 779 km, 86.4° (Epoch: 25 May)

Date Brightness Start Highest point End Pass type
(mag) Time Alt. Az. Time Alt. Az. Time Alt. Az.
26 May 8.0 00:58:11 10° NE 01:01:31 17° ENE 01:02:18 16° E visible
26 May 6.2 02:37:30 10° NNW 02:42:37 56° W 02:42:46 56° W visible
27 May 5.9 02:03:53 10° N 02:09:08 79° E 02:09:16 78° ESE visible
27 May 8.1 03:47:20 10° NW 03:49:04 12° WNW 03:49:44 11° W visible
28 May 6.7 01:30:34 10° N 01:35:32 43° E 01:35:47 42° E visible
28 May 7.5 03:12:01 10° NNW 03:15:54 22° W 03:16:15 21° W visible
29 May 7.6 00:57:37 10° NNE 01:01:48 24° ENE 01:02:18 23° E visible
29 May 6.7 02:37:48 10° NNW 02:42:37 39° W 02:42:45 39° W visible
30 May 8.2 00:25:30 10° NE 00:27:56 13° ENE 00:28:49 13° E visible
30 May 5.9 02:04:01 10° N 02:09:13 72° W 02:09:17 72° W visible
31 May 6.2 01:30:30 10° N 01:35:42 62° E 01:35:48 62° E visible
31 May 7.9 03:12:55 10° NW 03:15:48 15° WNW 03:16:16 15° W visible
01 Jun 7.0 00:57:18 10° NNE 01:02:02 34° E 01:02:20 33° E visible
01 Jun 7.3 02:38:15 10° NNW 02:42:35 27° W 02:42:48 27° W visible
02 Jun 7.8 00:24:35 10° NNE 00:28:15 19° ENE 00:28:53 19° E visible
02 Jun 6.4 02:04:14 10° NNW 02:09:16 49° W 02:09:21 49° W visible
02 Jun 8.4 23:54:03 10° ENE 23:54:19 10° ENE 23:54:35 10° ENE visible
03 Jun 5.9 01:30:33 10° N 01:35:48 89° E 01:35:53 87° SSE visible
03 Jun 8.3 03:15:30 10° WNW 03:15:39 10° WNW 03:15:47 10° WNW visible
04 Jun 6.5 00:57:09 10° N 01:02:14 48° E 01:02:26 48° E visible
04 Jun 7.7 02:38:55 10° NW 02:42:31 19° W 02:42:54 19° W visible
